Location: *
(37.5724°S, 58.0067°E)
Time: 21:01:40
(UTC+00:00)

Cosmos 2369 Rocket - Pass Details

Date: 26 September 2020
Orbit: 827 x 854 km, 71.0° (Epoch: 27 October)

Event Time Altitude Azimuth Distance (km) Brightness Sun altitude
Rises 16:57:17 0° 215° (SW) 3,402 6.3 -32.6°
Reaches altitude 10° 17:00:04 10° 227° (SW) 2,458 5.4 -33.1°
Maximum altitude 17:04:41 27° 282° (WNW) 1,567 3.9 -33.8°
Enters shadow 17:05:30 26° 296° (WNW) 1,601 3.8 -33.9°
